Other Surface Observations
Issued by NWS

Home | Current Version | Previous Version | Text Only | Print | Product List | Glossary On
Versions: 1 2 3 4 5 6 7 8 9 10 11 12 13 14 15 16 17 18 19 20 21 22 23 24 25 26 27 28 29 30 31 32 33 34 35 36 37 38 39 40 41 42 43 44 45 46 47 48 49 50
000
SXUS52 KTAE 251006
OSOTAE
OSOTAE
North Florida/South Alabama/Southwest Georgia Weather Roundup
National Weather Service Tallahassee Florida
600 AM EDT WED MAY 25 2016

Note: "fair" indicates few or no clouds below 12,000 feet with no
significant weather and/or obstructions to visibility.

!FLZ017-115-028-034-025-251100
...North Florida...

CITY           SKY/WX    TMP DP  RH WIND       PRES   REMARKS
TALLAHASSEE    CLEAR     66  61  84 CALM      30.15R
APALACHICOLA   CLEAR     64  62  93 NE5       30.12S
PERRY          CLEAR     69  59  71 E5        30.16R
CROSS CITY       N/A     64  58  80 E3        30.15S
JACKSONVILLE   PTCLDY    63  62  97 CALM      30.17R
$$

!FLZ112-006-005-002-011-251100
...Florida Panhandle...

CITY           SKY/WX    TMP DP  RH WIND       PRES   REMARKS
MARIANNA       CLEAR     66  60  81 SE3       30.14R
BONIFAY        FAIR      60  59  96 CALM      30.14R
PANAMA CITY NW FAIR      61  59  93 CALM      30.11R
TYNDALL AFB    CLEAR     67  61  82 E3        30.13R
TYND DRONE APT FAIR      67  63  85 E5        30.13R
DE FUNIAK SPR  FAIR      63  61  93 N5        30.13R
EGLIN AFB      CLEAR     62  59  90 N3        30.12R
DESTIN         CLEAR     68  66  93 CALM      30.12R
HURLBURT       CLEAR     61  60  95 NE3       30.11R
CRESTVIEW      CLEAR     56  55  97 NE3       30.14R
PENSACOLA      CLEAR     65  62  90 N3        30.11R
$$

!ALZ063-066-251100
...South Alabama...

CITY           SKY/WX    TMP DP  RH WIND       PRES   REMARKS
DOTHAN         CLEAR     63  58  83 N3        30.17S
OZARK CAIRNS   CLEAR     60  58  92 NE2       30.13R
FT RUCKER HELI CLEAR     60  57  89 CALM      30.13R
RUCKER HELI 3  FAIR      60  60  97 N5        30.15R
RUCKER HELI 2  NOT AVBL
FLORALA APT    CLEAR     64  58  80 VRB5      30.16R
ANDALUSIA      CLEAR     65  59  81 CALM      30.14R
TROY           CLEAR     59  57  93 CALM      30.16R
EUFALA         FAIR      58  55  90 CALM      30.14F
MOBILE         CLEAR     63  63 100 CALM      30.13R
$$

!GAZ120>161-251100
...Southwest and South Central Georgia...

CITY           SKY/WX    TMP DP  RH WIND       PRES   REMARKS
THOMASVILLE    FAIR      64  61  88 CALM      30.18R
BAINBRIDGE     CLEAR     64  59  82 CALM      30.16R
MOODY AFB      CLEAR     64  58  80 SE2       30.16R
VALDOSTA       CLEAR     63  60  90 CALM      30.17R
MOULTRIE       CLEAR     64  61  88 CALM      30.18R
BLAKELY        CLEAR     61  61 100 CALM      30.15S
ALBANY         CLEAR     61  56  83 CALM      30.18R
TIFTON         FAIR      63  62  97 CALM      30.18R
FITZGERALD     FAIR      63  61  93 CALM      30.21R
CORDELE        FAIR      65  61  89 CALM      30.19R
AMERICUS       FAIR      59  59 100 CALM      30.19S
HOMERVILLE     FAIR      66  61  82 CALM      30.18R
$$

!GMZ750-755-770-775-251100
...Coastal and Buoy Obs...

STATION/POSITION TIME  TEMP    WIND        PRES    VSBY  WAVE
                       AIR SEA DIR/SP/G                  HT/PER
                 (UTC) (F)     (DEG/KT/KT) (MB)    (MI)  (FT/S)
KEATON BEACH     1000   67      80/  9/ 10 1020.5R
CEDAR KEY        0900   75     110/ 11/ 12 1021.4R
C TOWER          1000   77     130/ 15/ 15 1020.4S
APALACHICOLA BUO 0950   78 78  130/ 14/ 17 1019.1F         1/ 2
PANAMA CITY BUOY 0850   76 80  110/  8/ 10 1019.8          1
MOBILE BUOY      0900   77 77  150/  6/  8 1019.0S
ORANGE BCH AL BU 0950   76 78  130/  2/  4 1019.0R         1/ 4
$$




USA.gov is the U.S. government's official web portal to all federal, state and local government web resources and services.